This demonstration page uses our WeatherBlox Daily Observations layout. Learn more.

Left ArrowRight Arrow

34.74481, -87.66753

Hourly Observations for February 18, 2018

Temp ( °F °C ) Dew Point ( °F °C ) Humidity (%) Winds ( mph kmh ) Pressure ( in mb ) Visibility ( mi km ) Precip ( " mm )
12:53 am 00:53 Cloudy 47 8.3 38 3.3 71 71 NE 13 20 30.26 1025 10 16 0.00 0.00
1:53 am 01:53 Cloudy 46 7.8 37 2.8 71 71 NE 12 19 30.27 1025 10 16 0.00 0.00
2:19 am 02:19 Partly Cloudy 46 7.8 37 2.8 71 71 NE 9 15 30.27 1025 10 16 0.00 0.00
2:53 am 02:53 Partly Cloudy 44 6.7 37 2.8 76 76 NE 6 9 30.27 1025 10 16 0.00 0.00
3:05 am 03:05 Mostly Cloudy 44 6.7 37 2.8 76 76 NE 6 9 30.27 1025 10 16 0.00 0.00
3:33 am 03:33 Partly Cloudy 44 6.7 36 2.2 73 73 NE 8 13 30.27 1025 8 13 0.00 0.00
3:53 am 03:53 Clear 44 6.7 36 2.2 73 73 NE 8 13 30.26 1025 10 16 0.00 0.00
4:53 am 04:53 Clear 42 5.6 36 2.2 79 79 NE 10 17 30.28 1025 9 14 0.00 0.00
5:53 am 05:53 Clear 41 5 35 1.7 79 79 NE 9 15 30.30 1026 10 16 0.00 0.00
6:53 am 06:53 Sunny 40 4.4 34 1.1 79 79 ENE 7 11 30.30 1026 10 16 0.00 0.00
7:53 am 07:53 Sunny 42 5.6 35 1.7 76 76 ENE 9 15 30.31 1026 10 16 0.00 0.00
8:53 am 08:53 Sunny 46 7.8 37 2.8 71 71 E 10 17 30.32 1027 10 16 0.00 0.00
9:53 am 09:53 Sunny 49 9.4 38 3.3 66 66 ESE 10 17 30.30 1026 10 16 0.00 0.00
10:53 am 10:53 Sunny 50 10 38 3.3 63 63 ESE 9 15 30.29 1026 10 16 0.00 0.00
11:53 am 11:53 Sunny 54 12.2 39 3.9 57 57 E 10 17 30.25 1025 10 16 0.00 0.00
12:53 pm 12:53 Sunny 57 13.9 40 4.4 53 53 SE 6 9 30.21 1023 10 16 0.00 0.00
1:53 pm 13:53 Sunny 60 15.6 41 5 50 50 ENE 7 11 30.17 1022 10 16 0.00 0.00
2:53 pm 14:53 Sunny 63 17.2 41 5 45 45 SE 12 19 30.16 1021 10 16 0.00 0.00
3:53 pm 15:53 Cloudy 61 16.1 42 5.6 50 50 SSE 10 17 30.16 1021 10 16 0.00 0.00
4:03 pm 16:03 Cloudy 61 16.1 43 6.1 52 52 S 7 11 30.18 1022 10 16 0.00 0.00
4:53 pm 16:53 Cloudy with Rain 57 13.9 47 8.3 69 69 SSE 6 9 30.16 1022 3 4 0.04 1.02
5:01 pm 17:01 Cloudy with Light Rain 55 12.8 48 8.9 77 77 Calm 30.18 1022 2 2 0.03 0.76
5:04 pm 17:04 Cloudy with Light Rain 55 12.8 48 8.9 77 77 Calm 30.18 1022 3 4 0.03 0.76
5:11 pm 17:11 Cloudy with Light Rain 55 12.8 49 9.4 80 80 Calm 30.18 1022 6 10 0.03 0.76
5:21 pm 17:21 Cloudy 55 12.8 50 10 83 83 Calm 30.18 1022 10 16 0.03 0.76
5:53 pm 17:53 Cloudy 54 12.2 51 10.6 90 90 Calm 30.17 1022 10 16 0.03 0.76
6:53 pm 18:53 Cloudy 55 12.8 51 10.6 87 87 Calm 30.17 1022 10 16 0.00 0.00
7:53 pm 19:53 Cloudy 56 13.3 51 10.6 84 84 SSE 7 11 30.17 1022 10 16 0.00 0.00
8:53 pm 20:53 Cloudy 57 13.9 52 11.1 83 83 S 9 15 30.17 1022 10 16 0.00 0.00
9:53 pm 21:53 Cloudy 57 13.9 53 11.7 87 87 S 8 13 30.16 1021 10 16 0.00 0.00
10:53 pm 22:53 Cloudy 57 13.9 54 12.2 90 90 SSE 7 11 30.15 1021 8 13 0.00 0.00
11:53 pm 23:53 Cloudy 56 13.3 53 11.7 90 90 SE 3 6 30.16 1021 8 13 0.00 0.00

Powered by AerisWeather